Date,TemperatureHighF,TemperatureAvgF,TemperatureLowF,DewpointHighF,DewpointAvgF,DewpointLowF,HumidityHigh,HumidityAvg,HumidityLow,PressureMaxIn,PressureMinIn,WindSpeedMaxMPH,WindSpeedAvgMPH,GustSpeedMaxMPH,PrecipitationSumIn
2013-1-1,41,37,27,30,25,10,73,61,50,30.01,29.82,11,2,16,0.00
2013-1-2,34,28,22,18,14,10,66,55,45,30.16,29.99,10,2,15,0.00
2013-1-3,34,29,25,20,17,15,68,60,48,30.19,30.06,6,2,10,0.00
2013-1-4,39,35,30,24,22,20,71,61,51,30.08,29.94,11,3,18,0.00
2013-1-5,44,36,30,27,23,19,83,61,44,30.27,30.00,9,2,16,0.00
2013-1-6,46,39,33,34,31,26,92,73,57,30.23,29.96,9,2,9,0.00
2013-1-7,47,39,28,31,27,24,84,64,42,30.39,30.04,6,1,12,0.00
2013-1-8,49,39,27,35,31,23,90,73,54,30.43,30.34,10,2,14,0.00
2013-1-9,49,42,31,42,36,29,94,80,65,30.39,30.13,7,1,15,0.00
2013-1-10,49,43,36,35,27,23,69,54,38,30.53,30.21,11,2,17,0.00
2013-1-11,46,41,32,45,35,26,96,79,62,30.53,30.09,5,1,8,0.44
2013-1-12,49,45,42,48,44,42,97,96,93,30.17,30.05,4,1,8,0.52
2013-1-13,48,46,42,48,45,42,98,97,93,30.16,30.01,4,1,11,0.01
2013-1-14,57,50,38,55,45,34,99,84,61,30.28,29.93,5,1,12,0.03
2013-1-15,39,37,35,34,30,27,91,76,64,30.33,30.21,5,1,10,0.04
2013-1-16,38,35,33,36,34,31,96,94,88,30.21,29.79,8,1,10,0.03
2013-1-17,45,40,35,35,30,25,89,68,54,30.08,29.91,6,1,12,0.03
2013-1-18,34,29,25,23,13,5,68,52,35,30.48,30.00,11,2,13,0.00
2013-1-19,52,40,30,38,26,14,78,58,41,30.41,29.95,12,4,24,0.00
2013-1-20,55,44,31,32,24,11,72,49,21,30.03,29.68,16,4,21,0.00
2013-1-21,34,30,24,24,15,8,78,55,42,30.09,29.82,9,2,16,0.00
2013-1-22,28,21,14,18,2,-8,65,44,28,30.19,29.81,11,4,18,0.00
2013-1-23,20,15,12,2,-3,-8,64,44,34,30.24,30.16,9,2,16,0.00
2013-1-24,25,17,10,4,0,-3,72,50,30,30.39,30.13,13,3,20,0.00
2013-1-25,25,19,14,19,7,-1,89,62,40,30.41,30.06,5,1,12,0.00
2013-1-26,28,21,13,14,10,6,88,66,43,30.36,30.04,6,1,14,0.00
2013-1-27,35,25,16,15,12,8,75,59,35,30.51,30.36,7,1,11,0.00
2013-1-28,36,31,22,34,26,15,95,84,64,30.48,30.00,6,1,12,0.26
2013-1-29,50,42,36,43,39,34,96,89,70,30.16,29.99,5,1,9,0.10
2013-1-30,54,49,41,53,48,40,98,96,93,30.09,29.40,16,4,24,0.01
2013-1-31,56,45,30,56,31,9,98,61,35,29.77,29.04,24,7,31,0.54